Weather Roundup
Issued by NWS Springfield, MO

Home | Current Version | Previous Version | Text Only | Print | Product List | Glossary On
Versions: 1 2 3 4 5 6 7 8 9 10 11 12 13 14 15 16 17 18 19 20 21 22 23 24 25 26 27 28 29 30 31 32 33 34 35 36 37 38 39 40 41 42 43 44 45 46 47 48 49 50
000
NZUS99 KSGF 202359
HRRSGF

HOURLY WEATHER
NATIONAL WEATHER SERVICE SPRINGFIELD MO
700 PM CDT MON OCT 20 2014

......SGF CWA......

CITY           SKY/WX    TMP DP  RH WIND       PRES   REMARKS
SPRINGFIELD    CLEAR     63  54  72 CALM      30.03R
6HR MIN TEMP:  63; 6HR MAX TEMP:  74;

JOPLIN         CLEAR     66  55  67 S3        30.03S
6HR MIN TEMP:  66; 6HR MAX TEMP:  76;

WEST PLAINS    CLEAR     62  57  83 W5        30.02R
6HR MIN TEMP:  62; 6HR MAX TEMP:  75;

ROLLA          CLEAR     59  46  62 NW3       30.00R
6HR MIN TEMP:  59; 6HR MAX TEMP:  72;

OSAGE BEACH    CLEAR     63  46  55 N3        30.01S
BRANSON        CLEAR     63  57  82 SW3       30.04R

......SURROUNDING SGF CWA......

CITY           SKY/WX    TMP DP  RH WIND       PRES   REMARKS
CHANUTE        CLEAR     69  47  45 NE5       30.03R
PARSONS        CLEAR     64  57  78 CALM      30.03S
COFFEYVILLE    CLEAR     68  58  70 CALM      30.02R
EMPORIA        CLEAR     68  45  43 NE6       30.04R
SILOAM SPRINGS PTCLDY    64  55  72 CALM      30.07R
HARRISON AR    CLEAR     61  59  93 CALM      30.04S
NEAR YELLVILLE CLEAR     64  55  72 SW3       30.02S

......KANSAS AND MISSOURI......

CITY           SKY/WX    TMP DP  RH WIND       PRES   REMARKS
KANSAS CTY INT CLEAR     68  40  35 CALM      30.04R
DOWNTOWN KC    CLEAR     66  45  46 NW3       30.03R
COLUMBIA       CLEAR     64  43  46 NW6       30.02R
SEDALIA        CLEAR     65  42  43 N3        30.04R
ST JOSEPH      CLEAR     56  42  59 N3        30.04R
ST LOUIS       CLEAR     65  43  44 NW3       29.99R
SPIRIT OF STL  CLEAR     56  47  71 CALM      29.98R
KIRKSVILLE     CLEAR     58  43  57 NW3       30.03R
WICHITA        CLEAR     74  44  34 E3        30.03S
TOPEKA         CLEAR     63  46  54 N3        30.04S
OLATHE         CLEAR     67  44  43 N3        30.03S

......TENNESSEE......

CITY           SKY/WX    TMP DP  RH WIND       PRES   REMARKS
MEMPHIS        CLEAR     65  51  60 SW3       30.02R
NASHVILLE      CLEAR     59  50  72 S5        30.00R

......ARKANSAS.......

CITY           SKY/WX    TMP DP  RH WIND       PRES   REMARKS
FAYETTEVILLE   PTCLDY    60  59  96 CALM      30.06R
FT SMITH       MOCLDY    66  58  75 SE3       30.04R
LITTLE ROCK    PTCLDY    64  54  69 SW5       30.03R

......OKLAHOMA.......

CITY           SKY/WX    TMP DP  RH WIND       PRES   REMARKS
TULSA          PTCLDY    69  61  75 E5        30.01S
PONCA CITY     CLEAR     73  59  61 E7        30.02R
MCALESTER      CLEAR     70  64  81 S3        30.02S
OKLAHOMA CITY  PTCLDY    73  60  63 E5        30.01R

......IOWA............

CITY           SKY/WX    TMP DP  RH WIND       PRES   REMARKS
DES MOINES     CLEAR     63  38  39 NW7       30.02R
QUAD CITIES    CLEAR     61  42  49 NW6       29.96R

......ILLINOIS........

CITY           SKY/WX    TMP DP  RH WIND       PRES   REMARKS
QUINCY         CLEAR     58  42  55 NW7       29.99S
CHICAGO        MOCLDY    54  45  71 NE8       29.96R




USA.gov is the U.S. government's official web portal to all federal, state and local government web resources and services.